User: anonymous   Login
Location: Cahoon Acres
(40.8736°N, 111.8994°W)
Time: 05:20:21
(UTC+00:00)
Language:

Tiros 1 - Orbit

View from above orbital plane
View from above orbital plane
View from above satellite
View from above satellite

Ground track
Ground track

The orbit data is extracted from the following two-line orbital elements,

1    29U 60002B   20148.11829385 -.00000134 +00000-0 +11018-4 0  9995
2    29 048.3808 049.3044 0023661 141.9782 218.2805 14.74356773215391
Epoch (UTC): 27 May 2020 02:50:20
Eccentricity: 0.0023661
inclination: 48.3808°
perigee height: 630 km
apogee height: 664 km
right ascension of ascending node: 49.3044°
argument of perigee: 141.9782°
revolutions per day: 14.74356773
mean anomaly at epoch: 218.2805°
orbit number at epoch: 21539

The dashed part of the orbit path shows where the satellite is in the earth's shadow,  

DLR